Rexburg, ID

3:37 AM MST on January 24, 2017 (GMT -0700)
Rexburg-Madison County

Weather History for KRXE - April, 2012

Change the Weather History Date:

Tuesday, April 17, 2012

  Actual Average Record
Temperature  
Mean Temperature 51 °F 44 °F  
Max Temperature 61 °F 57 °F 74 °F (2001)
Min Temperature 41 °F 32 °F 19 °F (2013)
Degree Days  
Heating Degree Days 14 21  
Month to date heating degree days 298 389  
Since 1 July heating degree days 6520 7318  
Cooling Degree Days 0 0  
Month to date cooling degree days 0 0  
Year to date cooling degree days 0 0  
Moisture  
Dew Point 34 °F    
Average Humidity 56    
Maximum Humidity 82    
Minimum Humidity 30    
Precipitation  
Precipitation 0.04 in 0.05 in 0.62 in (2006)
Month to date precipitation 0.44 0.80  
Year to date precipitation 3.33 3.43  
Sea Level Pressure  
Sea Level Pressure 30.05 in    
Wind  
Wind Speed 14 mph (SSW)    
Max Wind Speed 28 mph    
Max Gust Speed 38 mph    
Visibility 10 miles    
Events Rain    
T = Trace of Precipitation, MM = Missing Value Source: NWS Daily Summary

Daily Weather History Graph

Daily Weather History Graph

Search for Another Location

Airport or City:

Trip Planner

Search our weather history database for the weather conditions in past years. The results will help you decide how hot, cold, wet, or windy it might be!

Date:

Astronomy

Apr. 17, 2012 Rise Set
Actual Time 6:39 AM MDT 8:14 PM MDT
Civil Twilight 6:09 AM MDT 8:44 PM MDT
Nautical Twilight 5:33 AM MDT 9:21 PM MDT
Astronomical Twilight 4:54 AM MDT 10:00 PM MDT
Moon 4:45 AM MDT (4/17) 5:05 PM MDT (4/17)
Length of Visible Light 14h 34m
Length of Day
13h 34m
Waning Crescent, 11% of the Moon is Illuminated
Apr 17
Waning Crescent
Apr 21
New
Apr 29
First Quarter
May 5
Full
May 12
Last Quarter

Hourly Weather History & Observations

Time (MDT) Temp. Windchill Dew Point Humidity Pressure Visibility Wind Dir Wind Speed Gust Speed Precip Events Conditions
12:53 AM 44.1 °F 38.6 °F 35.1 °F 71% 30.07 in 10.0 mi SSW 10.4 mph - N/A   Mostly Cloudy
1:53 AM 43.0 °F 37.2 °F 35.1 °F 74% 30.05 in 10.0 mi SSW 10.4 mph - N/A   Mostly Cloudy
2:53 AM 43.0 °F 36.4 °F 37.0 °F 80% 30.04 in 9.0 mi South 12.7 mph 18.4 mph 0.00 in Rain Light Rain
3:19 AM 42.8 °F 35.8 °F 37.4 °F 81% 30.08 in 10.0 mi SSW 13.8 mph 23.0 mph 0.01 in   Overcast
3:53 AM 41.0 °F 34.3 °F 37.0 °F 86% 30.05 in 10.0 mi SSW 11.5 mph - 0.01 in   Mostly Cloudy
4:46 AM 41.0 °F 34.7 °F 35.6 °F 81% 30.08 in 10.0 mi South 10.4 mph 19.6 mph N/A   Overcast
5:53 AM 42.1 °F 35.2 °F 36.0 °F 79% 30.05 in 10.0 mi South 12.7 mph 19.6 mph N/A   Overcast
6:53 AM 43.0 °F 36.0 °F 37.9 °F 82% 30.06 in 10.0 mi SSW 13.8 mph 23.0 mph N/A   Overcast
7:21 AM 42.8 °F 34.5 °F 37.4 °F 81% 30.10 in 10.0 mi SW 18.4 mph 26.5 mph N/A   Overcast
7:53 AM 43.0 °F 35.1 °F 37.9 °F 82% 30.08 in 10.0 mi SW 17.3 mph 23.0 mph N/A   Overcast
8:01 AM 42.8 °F 34.8 °F 37.4 °F 81% 30.11 in 10.0 mi SSW 17.3 mph 23.0 mph N/A   Overcast
8:38 AM 42.8 °F 35.4 °F 37.4 °F 81% 30.11 in 10.0 mi SSW 15.0 mph 24.2 mph N/A   Overcast
8:53 AM 43.0 °F 35.7 °F 37.9 °F 82% 30.10 in 10.0 mi SSW 15.0 mph 21.9 mph N/A   Overcast
9:53 AM 44.1 °F 36.5 °F 36.0 °F 73% 30.12 in 10.0 mi SSW 17.3 mph 25.3 mph N/A   Overcast
10:34 AM 46.4 °F 39.5 °F 37.4 °F 71% 30.12 in 10.0 mi SSW 17.3 mph 26.5 mph N/A   Overcast
10:53 AM 48.9 °F - 37.9 °F 66% 30.10 in 10.0 mi SSW 16.1 mph 26.5 mph N/A   Overcast
11:53 AM 54.0 °F - 37.0 °F 53% 30.08 in 10.0 mi SSW 16.1 mph 25.3 mph N/A   Partly Cloudy
12:53 PM 57.0 °F - 32.0 °F 39% 30.06 in 10.0 mi SSW 20.7 mph 32.2 mph N/A   Partly Cloudy
1:53 PM 57.0 °F - 28.9 °F 34% 30.05 in 10.0 mi SSW 21.9 mph 34.5 mph N/A   Mostly Cloudy
2:53 PM 57.9 °F - 28.9 °F 33% 30.04 in 10.0 mi SSW 23.0 mph 31.1 mph N/A   Scattered Clouds
3:53 PM 59.0 °F - 28.9 °F 32% 30.02 in 10.0 mi SW 21.9 mph 32.2 mph N/A   Mostly Cloudy
4:53 PM 59.0 °F - 28.0 °F 31% 30.01 in 10.0 mi SSW 20.7 mph 31.1 mph N/A   Mostly Cloudy
5:53 PM 57.0 °F - 27.0 °F 32% 30.00 in 10.0 mi SW 18.4 mph 26.5 mph N/A   Partly Cloudy
6:53 PM 57.0 °F - 28.0 °F 33% 30.00 in 10.0 mi SSW 15.0 mph 26.5 mph N/A   Clear
7:53 PM 54.0 °F - 28.0 °F 37% 29.99 in 10.0 mi SSW 8.1 mph - N/A   Clear
8:53 PM 51.1 °F - 25.0 °F 36% 29.99 in 10.0 mi South 6.9 mph - N/A   Clear
9:53 PM 52.0 °F - 26.1 °F 37% 29.97 in 10.0 mi South 12.7 mph 18.4 mph N/A   Overcast
10:53 PM 52.0 °F - 27.0 °F 38% 29.96 in 10.0 mi SSW 17.3 mph 23.0 mph N/A   Mostly Cloudy
11:53 PM 48.9 °F - 37.9 °F 66% 29.96 in 5.0 mi Calm Calm - 0.03 in Rain Light Rain